www.pogodaiklimat.ru

Погода и климат >> Архив погоды >> Чехия >> Пршибислав


ПОГОДА в Пршибиславе

  • Прогноз погоды в Пршибиславе
  • Монитор погоды в Пршибиславе

АРХИВ ПОГОДЫ в Пршибиславе

Время (UTC), дата Ветер
(напр.,м/с)
 
Видим.   Явления Облачность Т
(С)
Тd
(С)
f
(%)
Тe
(С)
Тes
(С)
Комфортность P
(гПа)
Po
(гПа)
Тmin
(С)
Tmax
(С)
R
(мм)
R24
(мм)
S
(см)
01 13.09 В 2 27 км н/о +12.7 +11.1 90 +12 +12 1030.8 967.5
02 13.09 В 2 28 км н/о +13.0 +11.0 88 +12 +12 1030.6 967.3
03 13.09 В 2 25 км {дымка} н/о +12.1 +10.7 91 +11 +11 1030.6 967.1
04 13.09 В 2 23 км н/о +12.5 +10.8 89 +12 +12 1030.6 967.2
05 13.09 В 2 30 км н/о +12.4 +10.7 89 +11 +11 1030.8 967.4
06 13.09 ЮВ 2 30 км 8/8 1500 м
[Cu hum]
+13.8 +11.6 87 +13 +13 1030.5 967.4 +11.0
07 13.09 СЗ 1 35 км 4/3 1440 м
[Cu hum Ci fib]
+15.8 +11.8 77 +17 +19 1030.2 967.6
08 13.09 З 4 35 км 3/3 1380 м
[Cu hum]
+17.3 +13.5 78 +17 +19 1029.9 967.6
09 13.09 З 6 35 км н/о +18.6 +13.7 73 +19 +20 1029.6 967.6
10 13.09 З 6 35 км 6/6 1300 м
[Cu hum]
+19.9 +13.6 67 +21 +23 комфорт 1029.0 967.3
11 13.09 СЗ 6
{11}
35 км 8/8 1050 м
[Cu hum]
+19.6 +12.4 63 +21 +21 комфорт 1029.1 967.3
12 13.09 СЗ 6
{11}
35 км 9/9 1170 м
[Cu hum]
+19.9 +12.6 63 +21 +22 комфорт 1029.1 967.4
13 13.09 СЗ 6 45 км 10/10 1080 м
[Sc diur, vesp]
+19.1 +12.6 66 +20 +20 1029.3 967.4
14 13.09 СЗ 5 45 км 10/10 1050 м
[Sc]
+18.7 +12.7 68 +19 +19 1029.5 967.5
15 13.09 СЗ 5 45 км 10/10 1410 м
[Sc]
+18.8 +12.6 67 +19 +19 1029.6 967.6
16 13.09 З 3 35 км н/о +18.3 +13.1 72 +19 +19 1029.3 967.3
17 13.09 СЗ 2 35 км н/о +17.3 +13.2 77 +18 +18 1029.7 967.4
18 13.09 СЗ 2 35 км 9/9 1500 м
[Sc]
+16.8 +13.1 79 +17 +17 1030.1 967.7 +21.3
19 13.09 З 2 35 км 8/0
[Ac trans]
+15.8 +12.8 82 +16 +16 1030.3 967.7
20 13.09 35 км 3/0
[Ac lent]
+15.6 +12.7 83 1030.4 967.7
21 13.09 С 2 30 км {дымка} н/о +14.2 +12.3 88 +14 +14 1031.1 968.1
22 13.09 З 1 21 км н/о +13.5 +12.0 91 +14 +14 1031.6 968.4
23 13.09 СЗ 3 19 км н/о +13.1 +11.5 90 +12 +12 1031.9 968.6
00 14.09 СЗ 3 15 км {дымка} н/о +13.2 +12.0 92 +12 +12 1032.0 968.7
01 14.09 С 2 30 км н/о +13.0 +11.1 88 +12 +12 1032.2 968.8
02 14.09 С 2 35 км н/о +12.7 +10.8 88 +12 +12 1032.3 968.9
03 14.09 СЗ 2 35 км {дымка} н/о +12.1 +10.3 89 +11 +11 1032.4 968.8
04 14.09 СЗ 2 30 км н/о +11.0 +9.5 90 +10 +10 1032.8 968.9
05 14.09 С 2 35 км н/о +11.1 +9.3 89 +10 +10 1033.2 969.3
06 14.09 СЗ 1 40 км 6/1 1500 м
[Sc Ac As]
+11.6 +9.6 88 +11 +12 1033.6 969.8 +10.2
07 14.09 40 км 3/1 630 м
[Cu med, cong Ac As]
+13.6 +9.2 75 1033.4 970.1
08 14.09 С 3 50 км 5/4 700 м
[Cu med, cong Ac trans Ci fib]
+14.1 +8.4 69 +13 +16 1033.5 970.2
09 14.09 С 3 50 км 5/4 800 м
[Cu hum Ac lent Ci fib]
+15.5 +7.0 57 +15 +19 1032.7 969.8
10 14.09 50 км 4/3 1020 м
[Cu hum Ci sp]
+16.4 +7.0 54 1032.4 969.7
11 14.09 С 4 50 км 4/3 1170 м
[Cu hum Ac lent Ci fib]
+16.1 +7.5 57 +15 +20 1032.4 969.6
12 14.09 С 4 50 км 5/5 1170 м
[Cu Sc]
+16.2 +6.3 52 +16 +19 1032.0 969.2
13 14.09 З 3 50 км 3/1 1500 м
[Sc diur, vesp Ac lent Ci sp]
+17.3 +6.1 48 +17 +22 1031.3 968.8
14 14.09 С 3 50 км 1/1 1500 м
[Sc diur, vesp Ci sp]
+17.7 +6.5 48 +18 +21 1030.4 968.1
15 14.09 СЗ 4 50 км 4/1 1500 м
[Sc diur, vesp Ci sp]
+17.2 +6.1 48 +17 +18 1030.1 967.7
16 14.09 СЗ 3 35 км н/о +16.5 +6.5 52 +16 +16 1029.8 967.2
17 14.09 СЗ 3 35 км н/о +14.6 +7.1 61 +14 +14 1030.1 967.1
18 14.09 СВ 4 35 км 1/0
[Ci sp]
+12.1 +5.7 65 +10 +10 1031.0 967.4 +18.2
19 14.09 СВ 1 35 км ясно +11.1 +6.1 71 +11 +11 1031.3 967.5
20 14.09 В 3 35 км ясно +8.5 +5.1 79 +6 +6 1031.9 967.5
21 14.09 ЮВ 2 35 км {дымка} н/о +8.4 +5.0 79 +7 +7 1031.9 967.5
22 14.09 В 3 35 км н/о +8.8 +4.4 74 +6 +6 1031.2 966.9
23 14.09 В 4 35 км н/о +7.6 +4.3 80 +4 +4 1031.4 966.8
00 15.09 В 3 35 км {дымка} н/о +7.7 +4.5 80 +5 +5 1030.8 966.3
01 15.09 В 3 35 км н/о +7.8 +4.5 80 +5 +5 1030.3 965.8
02 15.09 В 3 35 км н/о +8.3 +4.5 77 +6 +6 1029.6 965.3
03 15.09 В 3 28 км {дымка} н/о +5.1 +3.2 88 +2 +2 1030.0 964.9
04 15.09 В 3 35 км н/о +4.9 +3.1 88 +1 +1 1029.4 964.3
05 15.09 В 4 35 км н/о +6.7 +4.1 83 +3 +3 1028.8 964.2
06 15.09 ЮВ 3 40 км 1/0
[Ci fib]
+8.1 +5.6 84 +5 +6 1028.4 964.1 +4.4
07 15.09 ЮВ 3 45 км 1/0
[Ci fib]
+12.4 +6.5 67 +11 +13 1027.2 963.9
08 15.09 Ю 4 45 км 1/0
[Ci fib]
+15.0 +7.2 60 +14 +17 1026.4 963.7
09 15.09 ЮЗ 4 45 км 3/0
[Ci fib]
+16.6 +8.9 60 +16 +21 1025.4 963.2
10 15.09 ЮЗ 3 50 км 3/1 1000 м
[Cu hum Ci sp]
+18.4 +10.1 58 +19 +25 1024.5 962.7
11 15.09 З 4 50 км 3/1 1080 м
[Cu hum Ci fib]
+19.6 +10.5 56 +21 +27 комфорт 1023.4 961.9
12 15.09 З 3 50 км 3/1 1110 м
[Cu hum Ci sp]
+21.3 +12.1 56 +23 +30 комфорт 1022.1 961.1
13 15.09 ЮЗ 5 50 км 3/0
[Ci sp]
+21.9 +11.6 52 +24 +28 комфорт 1021.1 960.3
14 15.09 З 5 50 км 4/0
[Ci]
+22.3 +9.6 44 +24 +26 комфорт 1020.5 959.7
15 15.09 З 4 50 км 6/0
[Ci]
+22.2 +11.2 50 +24 +26 комфорт 1019.7 959.0
16 15.09 ЮЗ 4 35 км н/о +21.6 +10.9 51 +23 +23 комфорт 1019.3 958.5
17 15.09 ЮЗ 3 35 км н/о +19.7 +10.7 56 +21 +21 комфорт 1019.5 958.3
18 15.09 ЮВ 2 35 км 6/0
[Ci sp]
+18.7 +10.6 59 +20 +20 1019.7 958.3 +22.8
19 15.09 ЮВ 2 35 км 5/0
[Ci sp]
+17.3 +10.7 65 +18 +18 1020.0 958.3
20 15.09 ЮВ 2 35 км 4/0
[Ci fib]
+16.6 +10.8 69 +17 +17 1020.3 958.4
21 15.09 ЮВ 2 30 км {дымка} н/о +14.8 +10.6 76 +15 +15 1020.7 958.4
22 15.09 В 3 27 км н/о +14.2 +10.6 79 +13 +13 1020.5 958.1
23 15.09 ЮВ 2 35 км н/о +14.8 +10.9 77 +15 +15 1020.1 957.9
00 16.09 В 2 35 км {дымка} н/о +14.3 +10.9 80 +14 +14 1019.8 957.5
01 16.09 14 км н/о +10.9 +8.7 86 1020.5 957.4
02 16.09 Ю 1 20 км н/о +11.0 +9.3 89 +11 +11 1020.3 957.2
03 16.09 нст 1 24 км {дымка} н/о +11.6 +9.8 89 +11 +11 1019.8 956.9
04 16.09 СЗ 1 3500 м дымка н/о +9.5 +8.5 93 +9 +9 1020.4 957.0
05 16.09 С 2 9000 м в посл. час туман н/о +9.6 +8.8 95 +8 +8 1020.6 957.2
06 16.09 нст 1 22 км 8/0
[Ac lent Ci sp]
+10.9 +10.0 94 +10 +11 1020.3 957.2 +8.3
07 16.09 СЗ 2 30 км 8/0
[Ac lent Ci sp]
+12.6 +10.8 89 +12 +14 1020.2 957.5
08 16.09 ЮЗ 2 30 км 9/0
[Ci sp]
+13.7 +11.2 85 +13 +17 1020.3 957.8
09 16.09 СЗ 3 35 км 9/0
[Ci sp]
+15.4 +9.2 67 +15 +20 1019.9 957.8
10 16.09 СЗ 2 35 км 9/0
[Ac As Ci sp]
+16.1 +9.4 64 +16 +22 1019.4 957.4
11 16.09 З 3 40 км 9/0
[Ac As Ci sp]
+17.7 +9.0 57 +18 +24 1018.3 956.7
12 16.09 З 3 40 км 9/0
[Ac As Ci sp]
+18.8 +9.7 55 +20 +25 1017.2 955.9
13 16.09 СЗ 4 40 км 9/0
[Ac As Ci sp]
+19.8 +9.4 51 +21 +23 комфорт 1016.4 955.4
14 16.09 З 3 40 км 9/0
[Ac As]
+19.5 +9.4 52 +21 +22 комфорт 1016.2 955.1
15 16.09 СЗ 3 40 км 9/0
[Ac As]
+19.4 +10.0 55 +21 +21 комфорт 1015.7 954.7
16 16.09 С 4 35 км н/о +17.1 +10.8 66 +17 +17 1016.0 954.5
17 16.09 С 2 35 км н/о +16.4 +11.0 70 +17 +17 1016.0 954.3
18 16.09 З 1 15 км 10/0
[As op]
+15.7 +11.1 74 +16 +16 1016.1 954.3 +20.4
19 16.09 С 3 15 км 10/0
[Ac As]
+15.2 +11.4 78 +15 +15 1016.4 954.5
20 16.09 СЗ 2 12 км слаб. дождь 10/0
[As op]
+14.2 +11.7 85 +14 +14 1016.7 954.6
21 16.09 СЗ 3 13 км слаб. ливневой дождь н/о +13.6 +11.7 88 +12 +12 1016.8 954.5
22 16.09 СЗ 2 5000 м слаб. ливневой дождь н/о +12.9 +11.8 93 +12 +12 1016.5 954.1
23 16.09 З 1 3200 м в посл. час осадки {ливн. осадки} н/о +12.9 +12.0 94 +13 +13 1016.3 953.9
00 17.09 З 2 1500 м слаб. дождь {морось} н/о +12.9 +12.3 96 +12 +12 1016.1 953.7 0.2
01 17.09 З 3 1600 м слаб. ливневой дождь {морось} н/о +13.0 +12.5 97 +12 +12 1015.5 953.2
02 17.09 С 7 35 км слаб. ливневой дождь н/о +11.5 +10.5 94 +8 +8 1016.4 953.7
03 17.09 СЗ 5 18 км в посл. час осадки {ливн. осадки} н/о +10.4 +9.2 92 +7 +7 1016.9 953.9
04 17.09 С 6 13 км н/о +10.0 +8.2 89 +6 +6 1017.1 954.0
05 17.09 СЗ 6 16 км н/о +9.4 +7.6 89 +6 +6 1017.8 954.5
06 17.09 СЗ 4 11 км 10/10 210 м
[Cu Sc]
+9.5 +7.8 89 +7 +7 1017.9 954.6 +9.3 0.5
07 17.09 СЗ 5 15 км 9/9 1140 м
[Sc]
+10.1 +7.9 86 +7 +7 1018.0 954.8
08 17.09 СЗ 5 15 км 9/9 420 м
[Cu hum]
+11.1 +7.2 77 +8 +9 1017.7 954.8
09 17.09 СЗ 4 22 км 10/10 570 м
[Sc diur, vesp]
+11.7 +7.6 76 +10 +10 1017.5 954.7
10 17.09 СЗ 6 25 км 10/10 630 м
[Sc]
+12.2 +7.4 72 +10 +10 1017.1 954.4
11 17.09 З 5 25 км 10/10 800 м
[Sc]
+12.5 +7.4 71 +10 +10 1016.4 953.8
12 17.09 СЗ 6-11
{11}
30 км 8/8 720 м
[Sc]
+13.9 +8.3 69 +12 +13 1015.4 953.2
13 17.09 З 8
{11}
35 км 6/6 960 м
[Cu hum]
+14.7 +6.0 56 +13 +13 1014.6 952.6
14 17.09 СЗ 7
{14}
35 км 8/8 1200 м
[Cu hum]
+14.5 +7.1 61 +13 +13 1014.1 952.1
15 17.09 З 7
{14}
35 км 6/5 1200 м
[Cu hum Ci sp]
+14.5 +6.4 58 +13 +13 1013.7 951.7
16 17.09 СЗ 8
{14}
35 км н/о +14.8 +6.3 57 +13 +13 1013.8 951.9
17 17.09 СЗ 8
{11}
35 км н/о +13.6 +5.2 57 +11 +11 1014.1 951.9
18 17.09 СЗ 6
{14}
25 км 10/8 1500 м
[Sc Ci sp]
+12.0 +5.2 63 +9 +9 1015.1 952.5 +15.7
19 17.09 З 5 22 км 6/3 1500 м
[Sc Ci sp]
+11.4 +5.1 65 +9 +9 1015.7 952.9
20 17.09 СЗ 9-15
{16}
22 км 9/9 1080 м
[Sc]
+11.0 +5.4 68 +7 +7 1017.3 954.3
21 17.09 СЗ 7-12
{16}
35 км {дымка} н/о +10.6 +3.9 63 +7 +7 1017.3 954.2
22 17.09 СЗ 8
{13}
35 км н/о +10.3 +4.2 66 +7 +7 1017.8 954.6
23 17.09 СЗ 13
{17}
35 км н/о +9.5 +3.3 65 +5 +5 1018.7 955.3
00 18.09 СЗ 7
{17}
35 км {дымка} н/о +8.2 +3.7 73 +4 +4 1019.2 955.5
01 18.09 СЗ 7
{12}
35 км н/о +7.4 +2.4 71 +3 +3 1019.7 955.8
02 18.09 СЗ 8
{11}
35 км н/о +7.5 +3.0 73 +3 +3 1020.0 956.1
03 18.09 СЗ 8
{12}
35 км {дымка} н/о +7.4 +2.6 72 +3 +3 1020.7 956.7
04 18.09 СЗ 8
{12}
35 км н/о +7.1 +2.8 74 +2 +2 1021.4 957.3
05 18.09 СЗ 6
{14}
30 км н/о +6.5 +2.3 75 +2 +2 1022.5 958.2
06 18.09 СЗ 6
{14}
30 км 6/6 840 м
[Cu hum]
+6.5 +2.1 73 +2 +2 1023.3 958.9 +6.0
07 18.09 СЗ 6 30 км 8/8 700 м
[Cu hum]
+7.4 +2.2 70 +3 +4 1023.8 959.6
08 18.09 СЗ 8 30 км 6/6 720 м
[Cu hum]
+8.2 +1.5 63 +4 +4 1024.1 960.1
09 18.09 СЗ 8
{13}
35 км 5/5 900 м
[Cu hum]
+10.0 +2.0 58 +6 +7 1024.0 960.4
10 18.09 СЗ 7
{12}
35 км 5/5 1020 м
[Cu hum]
+10.6 +1.5 53 +7 +9 1023.8 960.3
11 18.09 З 7
{11}
35 км 6/6 1200 м
[Cu hum]
+12.3 +2.8 52 +10 +11 1023.5 960.4
12 18.09 СЗ 6
{13}
35 км {дымка} н/о +11.3 +1.2 50 +9 +9 1023.5 960.2
13 18.09 З 7
{11}
35 км 8/8 1470 м
[Cu hum]
+12.2 +1.4 48 +10 +10 1023.1 960.0
14 18.09 СЗ 7
{12}
35 км 8/8 1470 м
[Cu hum]
+12.6 +1.0 45 +10 +10 1022.9 959.9
15 18.09 СЗ 6
{12}
35 км 6/6 1500 м
[Cu hum]
+12.4 +2.1 49 +10 +11 1022.7 959.7
16 18.09 СЗ 5 35 км н/о +11.2 +2.6 55 +9 +9 1022.7 959.4
17 18.09 СЗ 5 35 км н/о +10.4 +1.9 56 +8 +8 1023.0 959.5
18 18.09 СЗ 3
{12}
35 км 1/1 1500 м
[Cu hum]
+8.5 +2.4 65 +6 +6 1023.9 959.9 +13.8
19 18.09 СЗ 2 35 км 8/8 1500 м
[Cu hum]
+7.8 +2.6 70 +6 +6 1024.7 960.5
20 18.09 СЗ 3 25 км 9/9 1500 м
[Cu hum]
+7.2 +2.7 73 +4 +4 1025.1 960.8
21 18.09 СЗ 3 35 км {дымка} н/о +5.9 +2.5 79 +3 +3 1025.5 960.9
22 18.09 С 1 30 км н/о +6.0 +2.3 77 +5 +5 1025.4 960.8
23 18.09 З 1 35 км н/о +6.0 +2.5 78 +5 +5 1025.6 961.0
00 19.09 нст 1 25 км {дымка} н/о +4.6 +2.8 88 +3 +3 1025.9 961.0
01 19.09 СЗ 2 30 км н/о +4.4 +1.9 84 +2 +2 1026.0 961.0
02 19.09 СЗ 2 28 км н/о +3.9 +1.9 87 +1 +1 1026.2 961.1
03 19.09 З 1 14 км {туман} н/о +2.2 +1.5 95 0 0 1026.8 961.2
04 19.09 З 1 21 км в посл. час туман н/о +2.6 +1.5 92 +1 +1 1026.9 961.4
05 19.09 15 км н/о +2.5 +1.6 94 1027.2 961.7
06 19.09 З 1 15 км 5/0
[Ci]
+3.8 +2.3 90 +2 +3 1027.6 962.4 +2.0
07 19.09 СЗ 3 25 км 8/1 270 м
[Cu hum Ci sp]
+5.6 +3.4 86 +2 +4 1027.8 963.0
08 19.09 З 4 23 км н/о +7.8 +4.4 79 +5 +5 1027.7 963.4
09 19.09 СЗ 7 30 км 6/5 660 м
[Cu hum Ci sp]
+9.2 +3.2 66 +5 +6 1027.8 963.8
10 19.09 СЗ 7
{12}
35 км 5/5 930 м
[Cu hum]
+10.3 +2.1 57 +7 +8 1027.3 963.5
11 19.09 СЗ 8
{12}
35 км 8/8 930 м
[Cu hum]
+10.5 +2.6 58 +7 +7 1027.7 963.9
12 19.09 СЗ 8
{12}
35 км 5/5 1500 м
[Cu hum]
+11.9 +1.5 49 +9 +10 1027.1 963.7
13 19.09 СЗ 6
{12}
35 км 8/8 1170 м
[Cu hum]
+11.5 +1.5 50 +9 +9 1027.3 963.8
14 19.09 СЗ 7
{12}
35 км 8/3 1200 м
[Cu hum Ci sp]
+11.3 -0.8 43 +8 +9 1027.4 963.8
15 19.09 СЗ 6
{12}
35 км 8/3 1500 м
[Cu hum Ci sp]
+11.2 0.0 46 +9 +9 1027.2 963.6
16 19.09 СЗ 5 35 км н/о +10.0 +1.0 54 +7 +7 1027.5 963.6
17 19.09 СЗ 4 35 км н/о +8.0 +1.8 65 +5 +5 1028.1 963.8
18 19.09 СЗ 3
{12}
35 км 8/0
[Ci sp]
+6.8 +1.8 70 +4 +4 1029.1 964.4 +12.6
19 19.09 СЗ 2 35 км 9/0
[Ci sp]
+6.2 +1.9 74 +4 +4 1029.6 964.8
20 19.09 С 3 25 км 8/0
[Ci sp]
+5.7 +2.2 78 +3 +3 1030.0 965.0
21 19.09 С 3 35 км {дымка} н/о +5.6 +1.6 75 +2 +2 1030.2 965.2
22 19.09 30 км н/о +4.4 +1.8 83 1030.6 965.3
23 19.09 З 2 35 км н/о +4.0 +1.3 83 +1 +1 1030.5 965.1
00 20.09 СЗ 1 27 км {дымка} н/о +2.9 +1.0 87 +1 +1 1030.9 965.2

 

Местоположение метеостанции Пршибислав (Чехия): широта 49.58 долгота 15.77 высота над уровнем моря 536 м.

В архиве по умолчанию представлена погода в Пршибиславе за последнюю неделю. Архивные данные за месяц целиком и за предыдущие месяцы, начиная с января 2011 года, Вы можете получить, выбрав интересующий диапазон дат из раскрывающегося списка и нажав кнопку "Ввод!".


*Определитесь, кто Вы:
робот инопланетянин человек

Внимание! Время в таблицах - всемирное. Для получения местного времени необходимо прибавить поправку, которая равна 1 ч.

Смотрите также архив погоды в соседних городах и на ближайших метеорологических станциях:

Погода в Свраточе (Чехия) (25 км)
Погода в Чаславе (Чехия) (48 км)
Погода в Пардубице (Чехия) (49 км)
Погода в Церкви Мыслова (Чехия) (50 км)
Погода в Кресин-Крамолине (Чехия) (50 км)
Погода в Замке Namest nad Oslav (Чехия) (52 км)
Погода на АЭС Дукованы (Чехия) (59 км)
Погода в Усти-над-Орлици (Чехия) (65 км)
Погода в Кучарловице (Чехия) (81 км)
Погода в Брно (Чехия) (83 км)

Пояснения к столбцам:

Ветер - указаны скорость ветра в м/с - средняя за 10 мин, порывы в срок и между сроками (в фигурных скобках) и направление, откуда дует ветер: С - северный, СВ - северо-восточный, В - восточный, ЮВ - юго-восточный, Ю - южный, ЮЗ - юго-западный, З - западный, СЗ - северо-западный.
Видимость - горизонтальная дальность видимости в метрах или километрах. При видимости от 1 до 10 км при отсутствии осадков обычно наблюдается дымка, при ухудшении видимости до 1 км и менее - туман. В сухую погоду видимость может ухудшаться дымом, пылью или мглою.
Явления - указаны атмосферные явления, наблюдавшиеся в срок или в последний час перед сроком; фигурными скобками обозначены явления, наблюдавшиеся между сроками (за 1-3 часа до срока); квадратными скобками обозначены град или гололедные отложения с указанием их диаметра в мм.
Облачность - указаны через наклонную черту общая и нижняя облачность в баллах и высота нижней границы облаков в метрах; квадратными скобками обозначены формы облаков: Ci - перистые, Cs - перисто-слоистые, Cc - перисто-кучевые, Ac - высококучевые, As - высокослоистые, Sc - слоисто-кучевые, Ns - слоисто-дождевые, Cu - кучевые, Cb - кучево-дождевые. Подробнее классификацию облаков см. в Атласе облаков (PDF).
T - Температура воздуха - температура, измеренная на высоте 2 м над землей.
Td - Температура точки росы - температура, при понижении до которой содержащийся в воздухе водяной пар достигнет насыщения.
f - Относительная влажность воздуха - влажноcть воздуха, измеренная на высоте 2 м над землей.
Te - Эффективная температура - температура, которую ощущает одетый по сезону человек в тени. Характеристика душности погоды. При расчете учитывается влияние влажности воздуха и скорости ветра на теплоощущения человека.
Tes - Эффективная температура на солнце - температура, которую ощущает человек, с поправкой на солнечный нагрев. Характеристика знойности погоды. Зависит от высоты солнца над горизонтом, облачности и скорости ветра. Ночью, в пасмурную погоду, а также при ветре 12 м/с и более поправка равна нулю.
P - Атмосферное давление - приведенное к уровню моря атмосферное давление.
Po - Атмосферное давление - измеренное на уровне метеостанции атмосферное давление.
Tmin - Минимальная температура - минимум температуры воздуха на высоте 2 м над землей.
Tmax - Максимальная температура - максимум температуры воздуха на высоте 2 м над землей.
R - Количество осадков - Количество выпавших осадков за период времени, мм. При наведении курсора мыши на число - период времени, за который выпало указанное количество осадков.
R24 - Количество осадков - Количество выпавших осадков за 24 часа, мм.
S - Снежный покров - Высота снежного покрова, см. При наведении курсора мыши на число - состояние снежного покрова и степень покрытия местности в баллах.